This demonstration page uses our WeatherBlox Daily Observations layout. Learn more.

Left ArrowRight Arrow

Hourly Observations for September 24, 2015

Temp ( °F °C ) Dew Point ( °F °C ) Humidity (%) Winds ( mph kmh ) Pressure ( in mb ) Visibility ( mi km ) Precip ( " mm )
12:51 am 00:51 Clear 68 20 65 18.3 90 90 SE 3 6 29.85 1011 10 16.0934 0 0
1:51 am 01:51 Clear 67 19.4 64 17.8 91 91 Calm 29.85 1011 10 16.0934 0 0
2:51 am 02:51 Clear 69 20.6 62 16.7 78 78 Calm 29.84 1011 10 16.0934 0 0
3:51 am 03:51 Clear 66 18.9 63 17.2 90 90 Calm 29.85 1011 10 16.0934 0 0
4:51 am 04:51 Clear 65 18.3 63 17.2 93 93 E 3 6 29.86 1011 10 16.0934 0 0
5:51 am 05:51 Clear 64 17.8 62 16.7 93 93 Calm 29.88 1012 10 16.0934 0 0
6:51 am 06:51 Sunny 66 18.9 63 17.2 90 90 Calm 29.91 1013 10 16.0934 0 0
7:51 am 07:51 Sunny 70 21.1 61 16.1 73 73 SE 5 7 29.92 1013 10 16.0934 0 0
8:51 am 08:51 Sunny 75 23.9 60 15.6 60 60 SSE 7 11 29.93 1013 10 16.0934 0 0
9:51 am 09:51 Sunny 78 25.6 59 15 52 52 SSW 3 6 29.93 1013 10 16.0934 0 0
10:51 am 10:51 Sunny 83 28.3 58 14.4 43 43 VRB 6 9 29.91 1013 10 16.0934 0 0
11:51 am 11:51 Sunny 87 30.6 52 11.1 30 30 S 5 7 29.89 1012 10 16.0934 0 0
12:51 pm 12:51 Sunny 88 31.1 54 12.2 31 31 SE 6 9 29.87 1011 10 16.0934 0 0
1:51 pm 13:51 Sunny 91 32.8 54 12.2 28 28 S 7 11 29.84 1011 10 16.0934 0 0
2:51 pm 14:51 Sunny 92 33.3 53 11.7 27 27 VRB 3 6 29.81 1010 10 16.0934 0 0
3:51 pm 15:51 Sunny 92 33.3 53 11.7 27 27 S 7 11 29.8 1009 10 16.0934 0 0
4:51 pm 16:51 Sunny 91 32.8 53 11.7 27 27 SSW 8 13 29.8 1009 10 16.0934 0 0
5:51 pm 17:51 Sunny 88 31.1 57 13.9 35 35 SSW 6 9 29.82 1010 10 16.0934 0 0
6:51 pm 18:51 Clear 82 27.8 62 16.7 51 51 N 6 9 29.84 1010 10 16.0934 0 0
7:51 pm 19:51 Clear 79 26.1 64 17.8 60 60 NE 5 7 29.86 1011 10 16.0934 0 0
8:51 pm 20:51 Clear 77 25 64 17.8 64 64 E 6 9 29.88 1012 10 16.0934 0 0
9:51 pm 21:51 Mostly Clear 78 25.6 60 15.6 54 54 SE 8 13 29.9 1013 10 16.0934 0 0
10:51 pm 22:51 Clear 76 24.4 57 13.9 52 52 ESE 5 7 29.9 1013 10 16.0934 0 0
11:51 pm 23:51 Clear 76 24.4 51 10.6 42 42 S 8 13 29.91 1013 10 16.0934 0 0

Powered by AerisWeather